| time (UTC) | temp F | wind direction | speed MPH | gust MPH | rain 1hr in | rain 24hr in | rain mn in | humidity % | barometer mb |
| 20260831132546 | 59 | 9 | 0.0 | 2.0 | 0.00 | 0.00 | 0.00 | 37 | 1018.9 |
| 20260831132050 | 59 | 17 | 0.0 | 2.0 | 0.00 | 0.00 | 0.00 | 37 | 1018.8 |
| 20260831131602 | 59 | 0 | 0.0 | 2.0 | 0.00 | 0.00 | 0.00 | 37 | 1018.9 |
| 20260831131044 | 59 | 17 | 0.0 | 2.0 | 0.00 | 0.00 | 0.00 | 37 | 1018.8 |
| 20260831130544 | 59 | 0 | 0.0 | 1.0 | 0.00 | 0.00 | 0.00 | 37 | 1018.8 |
| 20260831130118 | 59 | 0 | 0.0 | 1.0 | 0.00 | 0.00 | 0.00 | 37 | 1018.8 |
| 20260831125546 | 59 | 0 | 0.0 | 1.0 | 0.00 | 0.00 | 0.00 | 36 | 1018.8 |
| 20260831125049 | 59 | 0 | 0.0 | 1.0 | 0.00 | 0.00 | 0.00 | 35 | 1018.8 |
| 20260831124603 | 59 | 0 | 0.0 | 1.0 | 0.00 | 0.00 | 0.00 | 37 | 1018.7 |
| 20260831124044 | 59 | 0 | 0.0 | 1.0 | 0.00 | 0.00 | 0.00 | 38 | 1018.8 |
| 20260831123547 | 59 | 0 | 0.0 | 1.0 | 0.00 | 0.00 | 0.00 | 38 | 1018.8 |
| 20260831123101 | 59 | 0 | 0.0 | 1.0 | 0.00 | 0.00 | 0.00 | 37 | 1018.7 |
| 20260831122549 | 59 | 0 | 0.0 | 1.0 | 0.00 | 0.00 | 0.00 | 36 | 1018.8 |
| 20260831122047 | 59 | 0 | 0.0 | 1.0 | 0.00 | 0.00 | 0.00 | 34 | 1018.7 |
| 20260831121606 | 59 | 0 | 0.0 | 1.0 | 0.00 | 0.00 | 0.00 | 35 | 1018.7 |
| 20260831121047 | 59 | 0 | 0.0 | 2.0 | 0.00 | 0.00 | 0.00 | 37 | 1018.6 |
| 20260831120546 | 59 | 0 | 0.0 | 2.0 | 0.00 | 0.00 | 0.00 | 39 | 1018.6 |
| 20260831120105 | 59 | 0 | 0.0 | 1.0 | 0.00 | 0.00 | 0.00 | 41 | 1018.6 |
| 20260831115546 | 59 | 0 | 0.0 | 1.0 | 0.00 | 0.00 | 0.00 | 42 | 1018.7 |
| 20260831115047 | 59 | 0 | 0.0 | 1.0 | 0.00 | 0.00 | 0.00 | 43 | 1018.7 |
| 20260831114602 | 59 | 0 | 0.0 | 1.0 | 0.00 | 0.00 | 0.00 | 45 | 1018.7 |
| 20260831114048 | 59 | 0 | 0.0 | 1.0 | 0.00 | 0.00 | 0.00 | 42 | 1018.7 |
| 20260831113547 | 59 | 0 | 0.0 | 1.0 | 0.00 | 0.00 | 0.00 | 43 | 1018.8 |
| 20260831113137 | 59 | 0 | 0.0 | 1.0 | 0.00 | 0.00 | 0.00 | 43 | 1018.7 |
| 20260831112550 | 59 | 0 | 0.0 | 3.0 | 0.00 | 0.00 | 0.00 | 43 | 1018.7 |
| 20260831112046 | 59 | 0 | 0.0 | 3.0 | 0.00 | 0.00 | 0.00 | 43 | 1018.7 |
| 20260831111600 | 59 | 17 | 0.0 | 3.0 | 0.00 | 0.00 | 0.00 | 42 | 1018.7 |
| 20260831111045 | 59 | 0 | 0.0 | 2.0 | 0.00 | 0.00 | 0.00 | 43 | 1018.8 |
| 20260831110550 | 60 | 0 | 0.0 | 2.0 | 0.00 | 0.00 | 0.00 | 43 | 1018.8 |
| 20260831105547 | 60 | 331 | 0.0 | 2.0 | 0.00 | 0.00 | 0.00 | 41 | 1018.9 |
| 20260831105047 | 60 | 0 | 1.0 | 2.0 | 0.00 | 0.00 | 0.00 | 44 | 1018.9 |
| 20260831104605 | 60 | 331 | 0.0 | 2.0 | 0.00 | 0.00 | 0.00 | 45 | 1018.8 |
| 20260831104048 | 60 | 0 | 0.0 | 2.0 | 0.00 | 0.00 | 0.00 | 45 | 1018.9 |
| 20260831103546 | 60 | 0 | 0.0 | 2.0 | 0.00 | 0.00 | 0.00 | 45 | 1018.9 |
| 20260831103113 | 60 | 0 | 0.0 | 2.0 | 0.00 | 0.00 | 0.00 | 43 | 1018.9 |
| 20260831102546 | 61 | 331 | 0.0 | 2.0 | 0.00 | 0.00 | 0.00 | 39 | 1018.9 |
| 20260831102047 | 61 | 0 | 0.0 | 2.0 | 0.00 | 0.00 | 0.00 | 42 | 1018.8 |
| 20260831101602 | 61 | 0 | 0.0 | 2.0 | 0.00 | 0.00 | 0.00 | 45 | 1018.9 |
| 20260831101046 | 61 | 0 | 0.0 | 2.0 | 0.00 | 0.00 | 0.00 | 48 | 1018.9 |
| 20260831100549 | 62 | 0 | 0.0 | 2.0 | 0.00 | 0.00 | 0.00 | 46 | 1018.8 |
| 20260831100106 | 62 | 331 | 1.0 | 2.0 | 0.00 | 0.00 | 0.00 | 48 | 1018.9 |
| 20260831095547 | 62 | 331 | 0.0 | 2.0 | 0.00 | 0.00 | 0.00 | 50 | 1019.0 |
| 20260831095047 | 62 | 0 | 0.0 | 2.0 | 0.00 | 0.00 | 0.00 | 51 | 1019.0 |
| 20260831094606 | 61 | 331 | 0.0 | 2.0 | 0.00 | 0.00 | 0.00 | 54 | 1019.1 |
| 20260831094048 | 61 | 0 | 0.0 | 2.0 | 0.00 | 0.00 | 0.00 | 54 | 1019.1 |
| 20260831093545 | 61 | 0 | 0.0 | 2.0 | 0.00 | 0.00 | 0.00 | 53 | 1019.1 |
| 20260831093112 | 61 | 0 | 0.0 | 1.0 | 0.00 | 0.00 | 0.00 | 54 | 1019.2 |
| 20260831092545 | 61 | 0 | 0.0 | 2.0 | 0.00 | 0.00 | 0.00 | 54 | 1019.2 |
| 20260831092048 | 61 | 0 | 0.0 | 3.0 | 0.00 | 0.00 | 0.00 | 53 | 1019.2 |
| 20260831091600 | 61 | 40 | 0.0 | 3.0 | 0.00 | 0.00 | 0.00 | 53 | 1019.2 |
| 20260831091050 | 61 | 0 | 1.0 | 3.0 | 0.00 | 0.00 | 0.00 | 53 | 1019.2 |
| 20260831090548 | 61 | 148 | 0.0 | 1.0 | 0.00 | 0.00 | 0.00 | 55 | 1019.3 |
| 20260831090109 | 61 | 0 | 0.0 | 2.0 | 0.00 | 0.00 | 0.00 | 53 | 1019.3 |
| 20260831085549 | 61 | 0 | 0.0 | 2.0 | 0.00 | 0.00 | 0.00 | 54 | 1019.4 |
| 20260831085047 | 61 | 0 | 0.0 | 1.0 | 0.00 | 0.00 | 0.00 | 54 | 1019.3 |
| 20260831084602 | 61 | 148 | 0.0 | 1.0 | 0.00 | 0.00 | 0.00 | 54 | 1019.4 |
| 20260831084045 | 62 | 0 | 0.0 | 1.0 | 0.00 | 0.00 | 0.00 | 54 | 1019.4 |
| 20260831083545 | 62 | 0 | 0.0 | 1.0 | 0.00 | 0.00 | 0.00 | 55 | 1019.5 |
| 20260831083109 | 62 | 0 | 0.0 | 2.0 | 0.00 | 0.00 | 0.00 | 55 | 1019.5 |
| 20260831082547 | 62 | 0 | 0.0 | 2.0 | 0.00 | 0.00 | 0.00 | 55 | 1019.6 |
| 20260831082046 | 62 | 0 | 0.0 | 1.0 | 0.00 | 0.00 | 0.00 | 56 | 1019.6 |
| 20260831081609 | 62 | 0 | 0.0 | 1.0 | 0.00 | 0.00 | 0.00 | 56 | 1019.6 |
| 20260831081046 | 62 | 0 | 0.0 | 1.0 | 0.00 | 0.00 | 0.00 | 55 | 1019.7 |
| 20260831080546 | 62 | 0 | 0.0 | 1.0 | 0.00 | 0.00 | 0.00 | 55 | 1019.7 |
| 20260831080108 | 62 | 0 | 0.0 | 1.0 | 0.00 | 0.00 | 0.00 | 56 | 1019.7 |
| 20260831075545 | 62 | 0 | 0.0 | 1.0 | 0.00 | 0.00 | 0.00 | 56 | 1019.8 |
| 20260831075047 | 62 | 0 | 0.0 | 1.0 | 0.00 | 0.00 | 0.00 | 56 | 1019.8 |
| 20260831074602 | 62 | 0 | 0.0 | 1.0 | 0.00 | 0.00 | 0.00 | 56 | 1019.8 |
| 20260831074047 | 62 | 0 | 0.0 | 2.0 | 0.00 | 0.00 | 0.00 | 56 | 1019.9 |
| 20260831073546 | 62 | 0 | 0.0 | 2.0 | 0.00 | 0.00 | 0.00 | 58 | 1019.9 |
| 20260831073108 | 61 | 148 | 0.0 | 2.0 | 0.00 | 0.00 | 0.00 | 58 | 1019.8 |
| 20260831072545 | 61 | 0 | 0.0 | 1.0 | 0.00 | 0.00 | 0.00 | 56 | 1019.9 |
| 20260831072044 | 61 | 0 | 0.0 | 1.0 | 0.00 | 0.00 | 0.00 | 55 | 1019.8 |
| 20260831071603 | 62 | 0 | 0.0 | 1.0 | 0.00 | 0.00 | 0.00 | 57 | 1019.8 |
| 20260831071046 | 62 | 0 | 0.0 | 1.0 | 0.00 | 0.00 | 0.00 | 58 | 1019.9 |
| 20260831070547 | 62 | 0 | 0.0 | 1.0 | 0.00 | 0.00 | 0.00 | 57 | 1020.0 |
| 20260831070109 | 62 | 0 | 0.0 | 1.0 | 0.00 | 0.00 | 0.00 | 57 | 1019.9 |
| 20260831065544 | 62 | 0 | 0.0 | 1.0 | 0.00 | 0.00 | 0.00 | 57 | 1020.0 |
| 20260831065048 | 62 | 0 | 0.0 | 0.0 | 0.00 | 0.00 | 0.00 | 57 | 1020.0 |
| 20260831064605 | 62 | 0 | 0.0 | 1.0 | 0.00 | 0.00 | 0.00 | 56 | 1019.9 |
| 20260831064050 | 62 | 0 | 0.0 | 1.0 | 0.00 | 0.00 | 0.00 | 56 | 1019.9 |
| 20260831063547 | 62 | 0 | 0.0 | 1.0 | 0.00 | 0.00 | 0.00 | 57 | 1019.9 |
| 20260831063105 | 62 | 0 | 0.0 | 1.0 | 0.00 | 0.00 | 0.00 | 57 | 1019.8 |
| 20260831062545 | 62 | 0 | 0.0 | 1.0 | 0.00 | 0.00 | 0.00 | 57 | 1019.8 |
| 20260831062048 | 63 | 0 | 0.0 | 1.0 | 0.00 | 0.00 | 0.00 | 57 | 1019.7 |
| 20260831061608 | 63 | 0 | 0.0 | 0.0 | 0.00 | 0.00 | 0.00 | 56 | 1019.8 |
| 20260831061049 | 62 | 0 | 0.0 | 1.0 | 0.00 | 0.00 | 0.00 | 56 | 1019.7 |
| 20260831060547 | 63 | 0 | 0.0 | 1.0 | 0.00 | 0.00 | 0.00 | 56 | 1019.6 |
| 20260831060105 | 63 | 0 | 0.0 | 1.0 | 0.00 | 0.00 | 0.00 | 57 | 1019.7 |
| 20260831055547 | 63 | 0 | 0.0 | 1.0 | 0.00 | 0.00 | 0.00 | 57 | 1019.7 |
| 20260831055047 | 63 | 0 | 0.0 | 1.0 | 0.00 | 0.00 | 0.00 | 57 | 1019.7 |
| 20260831054611 | 63 | 0 | 0.0 | 0.0 | 0.00 | 0.00 | 0.00 | 58 | 1019.7 |
| 20260831054048 | 63 | 0 | 0.0 | 0.0 | 0.00 | 0.00 | 0.00 | 59 | 1019.7 |
| 20260831053545 | 63 | 0 | 0.0 | 1.0 | 0.00 | 0.00 | 0.00 | 60 | 1019.7 |
| 20260831053102 | 63 | 0 | 0.0 | 1.0 | 0.00 | 0.00 | 0.00 | 60 | 1019.7 |
| 20260831052549 | 63 | 0 | 0.0 | 0.0 | 0.00 | 0.00 | 0.00 | 62 | 1019.7 |
| 20260831052044 | 63 | 0 | 0.0 | 1.0 | 0.00 | 0.00 | 0.00 | 62 | 1019.7 |
| 20260831051611 | 63 | 0 | 0.0 | 1.0 | 0.00 | 0.00 | 0.00 | 63 | 1019.7 |
| 20260831051043 | 63 | 0 | 0.0 | 2.0 | 0.00 | 0.00 | 0.00 | 63 | 1019.7 |
| 20260831050543 | 63 | 0 | 0.0 | 2.0 | 0.00 | 0.00 | 0.00 | 63 | 1019.7 |
| 20260831050107 | 63 | 148 | 0.0 | 1.0 | 0.00 | 0.00 | 0.00 | 63 | 1019.7 |
| 20260831045543 | 63 | 0 | 0.0 | 0.0 | 0.00 | 0.00 | 0.00 | 63 | 1019.7 |
| 20260831045044 | 63 | 0 | 0.0 | 1.0 | 0.00 | 0.00 | 0.00 | 64 | 1019.8 |
| 20260831044613 | 63 | 0 | 0.0 | 1.0 | 0.00 | 0.00 | 0.00 | 64 | 1019.8 |
| 20260831044047 | 63 | 0 | 0.0 | 1.0 | 0.00 | 0.00 | 0.00 | 65 | 1019.8 |
| 20260831043543 | 63 | 0 | 0.0 | 2.0 | 0.00 | 0.00 | 0.00 | 63 | 1019.9 |
| 20260831043101 | 64 | 0 | 0.0 | 2.0 | 0.00 | 0.00 | 0.00 | 65 | 1019.7 |
| 20260831042549 | 64 | 148 | 0.0 | 2.0 | 0.00 | 0.00 | 0.00 | 68 | 1019.8 |
| 20260831042048 | 64 | 0 | 0.0 | 1.0 | 0.00 | 0.00 | 0.00 | 67 | 1019.8 |
| 20260831041606 | 64 | 0 | 0.0 | 1.0 | 0.00 | 0.00 | 0.00 | 69 | 1019.7 |
| 20260831041047 | 64 | 0 | 0.0 | 1.0 | 0.00 | 0.00 | 0.00 | 69 | 1019.7 |
| 20260831040545 | 65 | 0 | 0.0 | 1.0 | 0.00 | 0.00 | 0.00 | 70 | 1019.7 |
| 20260831040107 | 65 | 0 | 0.0 | 1.0 | 0.00 | 0.00 | 0.00 | 71 | 1019.7 |
| 20260831035543 | 65 | 0 | 0.0 | 1.0 | 0.00 | 0.00 | 0.00 | 70 | 1019.6 |
| 20260831035048 | 65 | 0 | 0.0 | 1.0 | 0.00 | 0.00 | 0.00 | 71 | 1019.6 |
| 20260831034601 | 65 | 0 | 0.0 | 1.0 | 0.00 | 0.00 | 0.00 | 70 | 1019.5 |
| 20260831034047 | 66 | 0 | 0.0 | 1.0 | 0.00 | 0.00 | 0.00 | 69 | 1019.4 |
| 20260831033544 | 66 | 0 | 0.0 | 0.0 | 0.00 | 0.00 | 0.00 | 69 | 1019.3 |
| 20260831033106 | 66 | 0 | 0.0 | 0.0 | 0.00 | 0.00 | 0.00 | 69 | 1019.3 |
| 20260831032547 | 67 | 0 | 0.0 | 2.0 | 0.00 | 0.00 | 0.00 | 69 | 1019.3 |
| 20260831032050 | 67 | 0 | 0.0 | 2.0 | 0.00 | 0.00 | 0.00 | 68 | 1019.3 |
| 20260831031558 | 67 | 0 | 0.0 | 1.0 | 0.00 | 0.00 | 0.00 | 68 | 1019.2 |
| 20260831031046 | 68 | 0 | 0.0 | 1.0 | 0.00 | 0.00 | 0.00 | 68 | 1019.1 |
| 20260831030546 | 68 | 0 | 0.0 | 1.0 | 0.00 | 0.00 | 0.00 | 68 | 1019.1 |
| 20260831030110 | 68 | 148 | 0.0 | 1.0 | 0.00 | 0.00 | 0.00 | 68 | 1019.1 |
| 20260831025547 | 69 | 0 | 0.0 | 2.0 | 0.00 | 0.00 | 0.00 | 68 | 1019.1 |
| 20260831025049 | 69 | 0 | 0.0 | 3.0 | 0.00 | 0.00 | 0.00 | 67 | 1019.1 |
| 20260831024603 | 69 | 190 | 1.0 | 3.0 | 0.00 | 0.00 | 0.00 | 67 | 1019.1 |
| 20260831024046 | 69 | 0 | 0.0 | 4.0 | 0.00 | 0.00 | 0.00 | 66 | 1019.1 |
| 20260831023549 | 70 | 173 | 1.0 | 4.0 | 0.00 | 0.00 | 0.00 | 66 | 1019.2 |
| 20260831023100 | 70 | 186 | 0.0 | 3.0 | 0.00 | 0.00 | 0.00 | 65 | 1019.2 |
| 20260831022548 | 71 | 186 | 0.0 | 2.0 | 0.00 | 0.00 | 0.00 | 64 | 1019.1 |
| 20260831022046 | 71 | 186 | 0.0 | 3.0 | 0.00 | 0.00 | 0.00 | 64 | 1019.1 |
| 20260831021606 | 71 | 0 | 0.0 | 6.0 | 0.00 | 0.00 | 0.00 | 63 | 1019.1 |
| 20260831021048 | 72 | 0 | 0.0 | 6.0 | 0.00 | 0.00 | 0.00 | 62 | 1018.9 |
| 20260831020550 | 72 | 0 | 0.0 | 3.0 | 0.00 | 0.00 | 0.00 | 61 | 1019.0 |
| 20260831020100 | 72 | 195 | 0.0 | 3.0 | 0.00 | 0.00 | 0.00 | 61 | 1018.9 |
| 20260831015551 | 73 | 0 | 0.0 | 5.0 | 0.00 | 0.00 | 0.00 | 59 | 1018.8 |
| 20260831015046 | 73 | 304 | 1.0 | 5.0 | 0.00 | 0.00 | 0.00 | 58 | 1018.9 |
| 20260831014603 | 73 | 180 | 1.0 | 4.0 | 0.00 | 0.00 | 0.00 | 57 | 1018.8 |
| 20260831014046 | 74 | 321 | 1.0 | 4.0 | 0.00 | 0.00 | 0.00 | 55 | 1018.9 |
| 20260831013548 | 74 | 0 | 0.0 | 4.0 | 0.00 | 0.00 | 0.00 | 54 | 1018.8 |
| 20260831013111 | 74 | 0 | 0.0 | 3.0 | 0.00 | 0.00 | 0.00 | 53 | 1019.0 |
| 20260831012549 | 74 | 221 | 0.0 | 5.0 | 0.00 | 0.00 | 0.00 | 51 | 1018.9 |
| 20260831012048 | 75 | 0 | 0.0 | 5.0 | 0.00 | 0.00 | 0.00 | 51 | 1018.8 |
| 20260831011603 | 75 | 139 | 1.0 | 4.0 | 0.00 | 0.00 | 0.00 | 51 | 1018.9 |
| 20260831011049 | 75 | 190 | 1.0 | 4.0 | 0.00 | 0.00 | 0.00 | 51 | 1018.8 |
| 20260831010550 | 76 | 146 | 1.0 | 5.0 | 0.00 | 0.00 | 0.00 | 52 | 1018.8 |
| 20260831010106 | 76 | 0 | 1.0 | 5.0 | 0.00 | 0.00 | 0.00 | 50 | 1018.8 |
| 20260831005547 | 76 | 148 | 0.0 | 11.0 | 0.00 | 0.00 | 0.00 | 49 | 1018.9 |
| 20260831005044 | 77 | 138 | 2.0 | 11.0 | 0.00 | 0.00 | 0.00 | 47 | 1018.8 |
| 20260831004604 | 77 | 0 | 0.0 | 9.0 | 0.00 | 0.00 | 0.00 | 48 | 1018.9 |
| 20260831004045 | 78 | 0 | 2.0 | 9.0 | 0.00 | 0.00 | 0.00 | 47 | 1018.8 |
| 20260831003548 | 78 | 149 | 2.0 | 7.0 | 0.00 | 0.00 | 0.00 | 44 | 1018.9 |
| 20260831003106 | 78 | 82 | 0.0 | 10.0 | 0.00 | 0.00 | 0.00 | 45 | 1018.9 |
| 20260831002547 | 79 | 0 | 1.0 | 10.0 | 0.00 | 0.00 | 0.00 | 44 | 1018.9 |
| 20260831002047 | 79 | 152 | 1.0 | 10.0 | 0.00 | 0.00 | 0.00 | 42 | 1018.9 |
| 20260831001612 | 79 | 219 | 2.0 | 6.0 | 0.00 | 0.00 | 0.00 | 42 | 1019.0 |
| 20260831001047 | 79 | 221 | 1.0 | 10.0 | 0.00 | 0.00 | 0.00 | 40 | 1018.9 |
| 20260831000547 | 80 | 116 | 2.0 | 10.0 | 0.00 | 0.00 | 0.00 | 37 | 1019.0 |
| 20260831000106 | 80 | 175 | 2.0 | 9.0 | 0.00 | 0.00 | 0.00 | 38 | 1019.0 |
| 20260830235548 | 80 | 134 | 3.0 | 10.0 | 0.00 | 0.00 | 0.00 | 37 | 1018.9 |
| 20260830235048 | 80 | 263 | 3.0 | 11.0 | 0.00 | 0.00 | 0.00 | 37 | 1019.1 |
| 20260830234607 | 80 | 178 | 3.0 | 11.0 | 0.00 | 0.00 | 0.00 | 37 | 1019.1 |
| 20260830234046 | 81 | 102 | 3.0 | 9.0 | 0.00 | 0.00 | 0.00 | 35 | 1019.0 |
| 20260830233545 | 81 | 275 | 3.0 | 9.0 | 0.00 | 0.00 | 0.00 | 37 | 1019.1 |
| 20260830233107 | 82 | 195 | 2.0 | 18.0 | 0.00 | 0.00 | 0.00 | 36 | 1019.2 |
| 20260830232545 | 81 | 274 | 3.0 | 20.0 | 0.00 | 0.00 | 0.00 | 35 | 1019.0 |
| 20260830232049 | 82 | 130 | 4.0 | 20.0 | 0.00 | 0.00 | 0.00 | 34 | 1019.2 |
| 20260830231607 | 83 | 130 | 1.0 | 9.0 | 0.00 | 0.00 | 0.00 | 34 | 1019.1 |
| 20260830231043 | 82 | 140 | 2.0 | 10.0 | 0.00 | 0.00 | 0.00 | 35 | 1019.1 |
| 20260830230544 | 82 | 78 | 3.0 | 10.0 | 0.00 | 0.00 | 0.00 | 35 | 1019.1 |
| 20260830225544 | 83 | 132 | 2.0 | 7.0 | 0.00 | 0.00 | 0.00 | 34 | 1019.2 |
| 20260830225046 | 84 | 214 | 2.0 | 7.0 | 0.00 | 0.00 | 0.00 | 34 | 1019.3 |
| 20260830224601 | 84 | 34 | 2.0 | 12.0 | 0.00 | 0.00 | 0.00 | 34 | 1019.3 |
| 20260830224047 | 84 | 144 | 3.0 | 18.0 | 0.00 | 0.00 | 0.00 | 36 | 1019.2 |
| 20260830223544 | 84 | 179 | 3.0 | 18.0 | 0.00 | 0.00 | 0.00 | 34 | 1019.3 |
| 20260830223113 | 84 | 152 | 3.0 | 9.0 | 0.00 | 0.00 | 0.00 | 35 | 1019.4 |
| 20260830222547 | 84 | 202 | 3.0 | 9.0 | 0.00 | 0.00 | 0.00 | 33 | 1019.6 |
| 20260830222044 | 84 | 221 | 1.0 | 9.0 | 0.00 | 0.00 | 0.00 | 34 | 1019.6 |
| 20260830221609 | 83 | 173 | 3.0 | 9.0 | 0.00 | 0.00 | 0.00 | 33 | 1019.7 |
| 20260830221046 | 84 | 140 | 2.0 | 8.0 | 0.00 | 0.00 | 0.00 | 33 | 1019.8 |
| 20260830220546 | 84 | 321 | 2.0 | 10.0 | 0.00 | 0.00 | 0.00 | 33 | 1019.8 |
| 20260830220105 | 84 | 146 | 3.0 | 10.0 | 0.00 | 0.00 | 0.00 | 32 | 1019.9 |
| 20260830215547 | 84 | 194 | 3.0 | 10.0 | 0.00 | 0.00 | 0.00 | 32 | 1020.1 |
| 20260830215045 | 84 | 148 | 2.0 | 10.0 | 0.00 | 0.00 | 0.00 | 33 | 1020.0 |
| 20260830214620 | 85 | 140 | 2.0 | 9.0 | 0.00 | 0.00 | 0.00 | 33 | 1020.1 |
| 20260830214046 | 85 | 134 | 2.0 | 9.0 | 0.00 | 0.00 | 0.00 | 34 | 1020.0 |
| 20260830213545 | 85 | 115 | 3.0 | 8.0 | 0.00 | 0.00 | 0.00 | 32 | 1020.1 |
| 20260830213106 | 85 | 175 | 2.0 | 9.0 | 0.00 | 0.00 | 0.00 | 35 | 1020.1 |
| 20260830212547 | 84 | 144 | 2.0 | 9.0 | 0.00 | 0.00 | 0.00 | 36 | 1020.2 |
| 20260830212047 | 84 | 178 | 3.0 | 9.0 | 0.00 | 0.00 | 0.00 | 34 | 1020.2 |
| 20260830211610 | 85 | 132 | 1.0 | 6.0 | 0.00 | 0.00 | 0.00 | 33 | 1020.3 |
| 20260830211047 | 85 | 154 | 2.0 | 12.0 | 0.00 | 0.00 | 0.00 | 33 | 1020.3 |
| 20260830210545 | 85 | 140 | 4.0 | 12.0 | 0.00 | 0.00 | 0.00 | 34 | 1020.4 |
| 20260830210118 | 85 | 155 | 2.0 | 8.0 | 0.00 | 0.00 | 0.00 | 34 | 1020.5 |
| 20260830205546 | 85 | 198 | 1.0 | 8.0 | 0.00 | 0.00 | 0.00 | 33 | 1020.3 |
| 20260830205048 | 85 | 156 | 1.0 | 9.0 | 0.00 | 0.00 | 0.00 | 33 | 1020.5 |
| 20260830204605 | 84 | 48 | 3.0 | 9.0 | 0.00 | 0.00 | 0.00 | 32 | 1020.5 |
| 20260830204045 | 85 | 148 | 3.0 | 9.0 | 0.00 | 0.00 | 0.00 | 32 | 1020.6 |
| 20260830203545 | 85 | 163 | 1.0 | 10.0 | 0.00 | 0.00 | 0.00 | 32 | 1020.6 |
| 20260830203105 | 84 | 210 | 4.0 | 11.0 | 0.00 | 0.00 | 0.00 | 31 | 1020.5 |
| 20260830202545 | 84 | 101 | 4.0 | 11.0 | 0.00 | 0.00 | 0.00 | 32 | 1020.5 |
| 20260830202045 | 84 | 224 | 2.0 | 9.0 | 0.00 | 0.00 | 0.00 | 35 | 1020.5 |
| 20260830201605 | 83 | 269 | 4.0 | 9.0 | 0.00 | 0.00 | 0.00 | 34 | 1020.6 |
| 20260830201047 | 84 | 225 | 3.0 | 8.0 | 0.00 | 0.00 | 0.00 | 34 | 1020.6 |
| 20260830200550 | 84 | 223 | 1.0 | 8.0 | 0.00 | 0.00 | 0.00 | 34 | 1020.6 |
| 20260830195545 | 84 | 0 | 2.0 | 9.0 | 0.00 | 0.00 | 0.00 | 35 | 1020.6 |
| 20260830195045 | 84 | 80 | 2.0 | 9.0 | 0.00 | 0.00 | 0.00 | 35 | 1020.7 |
| 20260830194606 | 83 | 175 | 3.0 | 9.0 | 0.00 | 0.00 | 0.00 | 35 | 1020.8 |
| 20260830194045 | 84 | 222 | 3.0 | 9.0 | 0.00 | 0.00 | 0.00 | 36 | 1020.7 |
| 20260830193545 | 84 | 166 | 1.0 | 11.0 | 0.00 | 0.00 | 0.00 | 37 | 1020.7 |
| 20260830193103 | 84 | 175 | 2.0 | 12.0 | 0.00 | 0.00 | 0.00 | 38 | 1020.7 |
| 20260830192544 | 84 | 155 | 5.0 | 12.0 | 0.00 | 0.00 | 0.00 | 37 | 1020.8 |
| 20260830192044 | 84 | 89 | 2.0 | 11.0 | 0.00 | 0.00 | 0.00 | 35 | 1020.9 |
| 20260830191611 | 84 | 175 | 2.0 | 11.0 | 0.00 | 0.00 | 0.00 | 34 | 1020.8 |
| 20260830191049 | 84 | 180 | 2.0 | 9.0 | 0.00 | 0.00 | 0.00 | 34 | 1021.0 |
| 20260830190547 | 84 | 128 | 1.0 | 7.0 | 0.00 | 0.00 | 0.00 | 35 | 1020.9 |
| 20260830190140 | 84 | 192 | 2.0 | 9.0 | 0.00 | 0.00 | 0.00 | 34 | 1020.9 |
| 20260830185548 | 83 | 120 | 1.0 | 10.0 | 0.00 | 0.00 | 0.00 | 32 | 1021.0 |
| 20260830185050 | 83 | 0 | 2.0 | 10.0 | 0.00 | 0.00 | 0.00 | 33 | 1021.1 |
| 20260830184628 | 83 | 169 | 2.0 | 10.0 | 0.00 | 0.00 | 0.00 | 31 | 1021.1 |
| 20260830184047 | 82 | 157 | 1.0 | 7.0 | 0.00 | 0.00 | 0.00 | 34 | 1021.2 |
| 20260830183547 | 82 | 294 | 2.0 | 6.0 | 0.00 | 0.00 | 0.00 | 33 | 1021.1 |
| 20260830183119 | 81 | 154 | 1.0 | 6.0 | 0.00 | 0.00 | 0.00 | 31 | 1021.2 |
| 20260830182544 | 81 | 184 | 2.0 | 6.0 | 0.00 | 0.00 | 0.00 | 34 | 1021.3 |
| 20260830182044 | 81 | 114 | 2.0 | 7.0 | 0.00 | 0.00 | 0.00 | 33 | 1021.2 |
| 20260830181606 | 81 | 188 | 2.0 | 7.0 | 0.00 | 0.00 | 0.00 | 33 | 1021.1 |
| 20260830181047 | 80 | 169 | 1.0 | 9.0 | 0.00 | 0.00 | 0.00 | 33 | 1021.1 |
| 20260830180544 | 80 | 146 | 2.0 | 9.0 | 0.00 | 0.00 | 0.00 | 35 | 1021.2 |
| 20260830180112 | 81 | 137 | 1.0 | 7.0 | 0.00 | 0.00 | 0.00 | 34 | 1021.2 |
| 20260830175548 | 81 | 135 | 2.0 | 9.0 | 0.00 | 0.00 | 0.00 | 34 | 1021.1 |
| 20260830175047 | 80 | 178 | 2.0 | 9.0 | 0.00 | 0.00 | 0.00 | 33 | 1021.1 |
| 20260830174610 | 80 | 179 | 1.0 | 7.0 | 0.00 | 0.00 | 0.00 | 35 | 1021.0 |
| 20260830174044 | 80 | 152 | 1.0 | 7.0 | 0.00 | 0.00 | 0.00 | 35 | 1021.0 |
| 20260830173544 | 80 | 205 | 2.0 | 7.0 | 0.00 | 0.00 | 0.00 | 35 | 1020.9 |
| 20260830173101 | 80 | 175 | 2.0 | 6.0 | 0.00 | 0.00 | 0.00 | 35 | 1020.8 |
| 20260830172544 | 80 | 200 | 1.0 | 6.0 | 0.00 | 0.00 | 0.00 | 36 | 1020.8 |
| 20260830172044 | 79 | 193 | 2.0 | 6.0 | 0.00 | 0.00 | 0.00 | 36 | 1020.8 |
| 20260830171607 | 79 | 133 | 1.0 | 4.0 | 0.00 | 0.00 | 0.00 | 38 | 1020.8 |
| 20260830171046 | 79 | 128 | 0.0 | 6.0 | 0.00 | 0.00 | 0.00 | 40 | 1020.8 |
| 20260830170546 | 79 | 121 | 1.0 | 7.0 | 0.00 | 0.00 | 0.00 | 38 | 1020.8 |
| 20260830165547 | 78 | 98 | 0.0 | 6.0 | 0.00 | 0.00 | 0.00 | 39 | 1020.6 |
| 20260830165047 | 78 | 146 | 1.0 | 8.0 | 0.00 | 0.00 | 0.00 | 39 | 1020.6 |
| 20260830164609 | 78 | 110 | 1.0 | 8.0 | 0.00 | 0.00 | 0.00 | 40 | 1020.5 |
| 20260830164049 | 77 | 136 | 1.0 | 9.0 | 0.00 | 0.00 | 0.00 | 41 | 1020.6 |
| 20260830163544 | 77 | 152 | 1.0 | 9.0 | 0.00 | 0.00 | 0.00 | 42 | 1020.4 |
| 20260830163108 | 77 | 227 | 1.0 | 9.0 | 0.00 | 0.00 | 0.00 | 41 | 1020.5 |
| 20260830162544 | 77 | 195 | 1.0 | 5.0 | 0.00 | 0.00 | 0.00 | 43 | 1020.3 |
| 20260830162046 | 76 | 150 | 0.0 | 5.0 | 0.00 | 0.00 | 0.00 | 43 | 1020.3 |
| 20260830161605 | 76 | 155 | 1.0 | 6.0 | 0.00 | 0.00 | 0.00 | 45 | 1020.3 |
| 20260830161045 | 74 | 40 | 0.0 | 6.0 | 0.00 | 0.00 | 0.00 | 44 | 1020.3 |
| 20260830160544 | 74 | 0 | 2.0 | 5.0 | 0.00 | 0.00 | 0.00 | 47 | 1020.3 |
| 20260830160106 | 74 | 246 | 1.0 | 5.0 | 0.00 | 0.00 | 0.00 | 45 | 1020.3 |
| 20260830155544 | 73 | 155 | 1.0 | 5.0 | 0.00 | 0.00 | 0.00 | 48 | 1020.4 |
| 20260830155047 | 72 | 169 | 1.0 | 4.0 | 0.00 | 0.00 | 0.00 | 49 | 1020.5 |
| 20260830154603 | 71 | 167 | 0.0 | 5.0 | 0.00 | 0.00 | 0.00 | 50 | 1020.3 |
| 20260830154046 | 70 | 0 | 1.0 | 5.0 | 0.00 | 0.00 | 0.00 | 50 | 1020.3 |
| 20260830153547 | 69 | 0 | 0.0 | 4.0 | 0.00 | 0.00 | 0.00 | 51 | 1020.3 |
| 20260830153115 | 68 | 74 | 0.0 | 3.0 | 0.00 | 0.00 | 0.00 | 53 | 1020.3 |
| 20260830152547 | 68 | 0 | 1.0 | 3.0 | 0.00 | 0.00 | 0.00 | 54 | 1020.2 |
| 20260830152045 | 68 | 58 | 1.0 | 3.0 | 0.00 | 0.00 | 0.00 | 54 | 1020.2 |
| 20260830151611 | 67 | 62 | 1.0 | 4.0 | 0.00 | 0.00 | 0.00 | 54 | 1020.2 |
| 20260830151045 | 67 | 62 | 1.0 | 4.0 | 0.00 | 0.00 | 0.00 | 55 | 1020.4 |
| 20260830150545 | 66 | 0 | 1.0 | 4.0 | 0.00 | 0.00 | 0.00 | 56 | 1020.4 |
| 20260830150106 | 66 | 20 | 0.0 | 2.0 | 0.00 | 0.00 | 0.00 | 55 | 1020.4 |
| 20260830145547 | 66 | 19 | 0.0 | 3.0 | 0.00 | 0.00 | 0.00 | 56 | 1020.4 |
| 20260830145047 | 66 | 0 | 0.0 | 3.0 | 0.00 | 0.00 | 0.00 | 56 | 1020.5 |
| 20260830144600 | 66 | 43 | 0.0 | 3.0 | 0.00 | 0.00 | 0.00 | 56 | 1020.4 |
| 20260830144047 | 66 | 33 | 0.0 | 3.0 | 0.00 | 0.00 | 0.00 | 56 | 1020.4 |
| 20260830143547 | 66 | 33 | 0.0 | 3.0 | 0.00 | 0.00 | 0.00 | 56 | 1020.3 |
| 20260830143206 | 65 | 37 | 0.0 | 3.0 | 0.00 | 0.00 | 0.00 | 56 | 1020.3 |
| 20260830143108 | 65 | 37 | 0.0 | 3.0 | 0.00 | 0.00 | 0.00 | 56 | 1020.3 |
| 20260830142548 | 65 | 35 | 0.0 | 3.0 | 0.00 | 0.00 | 0.00 | 56 | 1020.3 |
| 20260830142048 | 65 | 0 | 0.0 | 2.0 | 0.00 | 0.00 | 0.00 | 57 | 1020.3 |
| 20260830141609 | 65 | 0 | 0.0 | 1.0 | 0.00 | 0.00 | 0.00 | 57 | 1020.3 |
| 20260830141047 | 65 | 9 | 0.0 | 1.0 | 0.00 | 0.00 | 0.00 | 57 | 1020.3 |
| 20260830140547 | 65 | 0 | 0.0 | 1.0 | 0.00 | 0.00 | 0.00 | 57 | 1020.2 |
| 20260830140101 | 65 | 0 | 0.0 | 1.0 | 0.00 | 0.00 | 0.00 | 57 | 1020.2 |
| 20260830135548 | 65 | 0 | 0.0 | 1.0 | 0.00 | 0.00 | 0.00 | 57 | 1020.1 |
| 20260830135048 | 65 | 0 | 0.0 | 1.0 | 0.00 | 0.00 | 0.00 | 57 | 1020.0 |
| 20260830134603 | 65 | 0 | 0.0 | 1.0 | 0.00 | 0.00 | 0.00 | 57 | 1020.1 |
| 20260830134045 | 65 | 9 | 0.0 | 2.0 | 0.00 | 0.00 | 0.00 | 57 | 1020.0 |
| 20260830133544 | 65 | 9 | 0.0 | 2.0 | 0.00 | 0.00 | 0.00 | 57 | 1020.0 |
| 20260830133105 | 65 | 9 | 0.0 | 1.0 | 0.00 | 0.00 | 0.00 | 56 | 1019.9 |